Reflectivity
-20 -20 -20 -20 -20 -20 -2 -20 -9 4 8 -0 6 -20 -20 -6 7 9 -20 -20 -20 -16 -3 4 16 -15 -20
-20 -20 -20 -20 -20 -19 -19 -16 -12 15 1 11 -12 -19 -20 6 10 -19 -20 -17 8 8 8 8 4 12 15
-5 -20 -20 -20 -20 -20 -20 -20 -9 19 9 -20 -20 -20 2 -7 -20 -20 -20 -11 2 -12 -17 12 21 15 18
1 -20 -20 -20 -20 -20 -20 -20 -20 -20 13 4 -20 -20 -20 -20 -20 -20 -20 -20 -20 -20 -20 -8 11 17 19
-20 -20 -20 -20 -20 -20 -20 -20 -20 -20 -20 -20 -20 -20 -20 -20 -20 -20 -20 -20 -20 -19 -20 -20 1 8 5
-20 -20 -20 -20 -20 -20 -20 -20 -20 -20 -20 -20 -20 -20 -20 -20 -20 -20 -20 -20 -20 -20 -20 -20 -20 -20 6
-20 -20 -20 -20 -20 -20 -20 -10 0 -18 -20 -20 -14 8 10 -20 -20 -20 -20 -20 -20 -20 -20 -20 -20 -20 -20
-20 -20 -20 -20 -20 -20 -20 -20 -20 -20 -20 -20 3 -4 -20 -20 -20 -20 -20 -20 -20 -20 -20 -20 -20 -20 -20
-20 -20 -20 -20 -20 -20 -20 -20 -20 -20 -20 -19 7 12 -18 -10 -19 -20 -20 -20 -20 -20 -20 -20 -20 -20 -20
-20 -20 -20 -20 -20 -20 -20 -20 -20 -20 -20 -20 -20 -20 -20 -20 -20 -20 -20 -20 -20 -20 -19 -19 -19 -20 -20
-20 -20 -20 -20 -20 -20 -20 -20 -20 -20 -20 -20 -20 -20 -20 -20 -20 -20 -20 -19 3 1 -5 -9 -16 -13 -8
-20 -20 -20 -20 -20 -20 -20 -20 -20 -20 -20 -19 -20 -20 -11 -20 -20 -20 -20 -13 -20 -20 -20 -20 -20 -20 -20
-20 -20 -20 -20 -20 -20 -20 -20 -20 -20 -20 -20 -20 -20 -20 -20 -20 -20 -20 -20 -20 -20 -20 -20 -20 -20 -20
-20 -20 -20 -20 -20 -20 -20 -20 -20 -20 -20 -20 -20 -20 -20 -20 -20 -20 -20 -20 -20 -20 -20 -20 -20 -20 -20
-20 -20 -20 -20 -20 -20 -20 -20 -20 -20 -20 -20 -20 -20 -20 -20 -20 -20 -20 -20 -20 -20 -20 -20 -20 -20 -20
-20 -20 -20 -20 -20 -20 -20 -20 -20 -20 -20 -20 -20 -20 -20 -20 -20 -20 -20 -20 -20 -20 -20 -20 -20 -20 -20
-20 -20 -20 -20 -20 -20 -20 -20 -20 -20 -20 -20 -20 -20 -20 -20 -20 -20 -20 -20 -20 -20 -20 -20 -20 -20 -20
Wind_Speed
1 1 2 3 3 2 1 2 2 4 4 2 1 4 7 10 9 7 10 12 13 14 17 19 18 7 13
4 3 2 1 2 3 2 2 1 3 2 1 0 4 4 7 7 9 11 11 11 12 14 16 19 19 9
3 1 1 2 2 2 2 1 0 2 2 4 4 4 4 6 6 8 9 9 9 10 11 13 15 18 18
3 3 2 2 1 2 3 2 1 1 1 2 2 3 6 5 4 6 6 7 8 8 9 11 12 12 14
2 2 3 2 3 2 2 2 2 3 4 4 3 3 3 2 1 4 5 6 6 6 6 7 9 9 10
2 4 4 3 3 3 2 3 3 3 5 4 3 3 2 1 1 2 3 4 4 2 3 4 5 6 7
5 5 3 5 4 4 3 3 2 3 3 3 2 3 2 3 1 2 3 3 3 3 2 3 3 4 4
5 3 2 3 4 4 5 4 3 3 3 3 2 3 3 3 1 3 2 1 3 3 3 4 4 4 5
4 4 5 4 3 4 4 4 3 3 3 2 2 2 3 3 2 4 2 2 3 4 4 4 6 4 5
5 5 5 6 4 2 3 4 2 2 3 3 3 2 2 2 3 3 3 3 6 4 3 3 2 1 1
4 3 3 4 2 1 2 2 2 2 2 3 1 1 1 1 2 3 3 3 3 3 1 1 1 2 2
5 5 4 4 3 2 3 2 3 1 3 1 2 1 1 1 2 1 3 3 3 3 2 2 2 3 5
5 4 4 3 5 4 4 4 3 3 3 1 1 2 1 1 1 2 2 3 3 3 3 3 4 3 4
5 4 5 4 5 4 4 4 3 3 3 2 1 2 2 3 3 3 3 2 2 3 3 3 4 5 6
5 5 5 5 5 4 4 4 3 3 3 4 4 3 3 3 4 5 5 4 4 4 4 5 5 6 7
6 5 5 6 6 5 4 4 4 4 3 3 4 3 3 7 12 6 4 4 3 4 4 4 5 5 5
6 6 5 5 7 6 5 5 5 4 4 4 4 4 4 4 2 13 4 3 3 4 4 5 6 5 6
Wind_Direction
74 339 239 176 137 116 112 86 50 14 348 346 3 50 44 29 18 33 38 30 23 27 16 17 12 253 230
173 188 206 167 150 159 120 64 31 322 308 342 73 61 67 48 15 24 42 39 30 32 25 22 24 42 65
202 143 167 162 154 141 152 93 41 14 65 67 83 82 94 74 33 28 26 29 35 31 31 29 28 40 50
223 187 180 152 162 166 192 200 187 215 59 35 58 43 113 73 37 29 23 19 17 27 33 35 28 44 54
201 177 183 176 196 180 199 153 219 227 234 208 206 206 167 126 108 49 27 25 17 12 27 44 40 36 51
196 222 216 192 168 172 143 176 227 194 238 213 219 213 215 231 63 53 35 36 31 16 38 56 51 45 51
232 228 235 193 151 168 187 187 219 126 206 235 223 210 189 184 359 117 81 52 34 58 78 93 91 90 83
241 239 196 141 173 185 194 186 134 158 187 244 171 207 186 195 214 185 139 80 64 73 89 95 98 103 102
92 94 133 141 174 169 171 186 201 204 192 267 153 186 199 188 144 153 150 126 122 108 90 84 96 86 96
123 109 137 124 134 246 171 200 196 203 165 215 186 180 193 188 191 178 164 78 90 90 81 61 61 309 275
165 154 164 157 166 121 117 196 180 221 142 181 193 153 265 136 201 199 206 181 196 192 187 303 260 314 271
190 187 186 177 157 139 104 93 79 70 138 120 100 211 205 160 227 209 221 226 220 226 224 221 245 262 265
199 192 179 154 129 136 118 109 109 114 132 102 175 166 212 252 306 216 219 204 221 227 222 235 244 235 257
192 175 144 163 183 174 172 170 195 176 151 148 171 197 212 235 249 264 223 259 194 226 225 229 238 237 242
184 178 173 173 182 177 188 178 210 183 179 178 188 228 255 256 248 237 247 239 241 244 243 258 251 245 245
194 186 179 184 183 183 188 195 205 203 200 178 179 206 237 227 220 247 252 254 253 227 244 268 269 240 243
190 185 180 183 188 191 194 200 206 216 209 195 204 219 239 253 128 213 235 231 235 240 240 247 271 277 267